Regional Weather Roundup
Issued by NWS

Home | Current Version | Previous Version | Graphics & Text | Print | Product List | Glossary On
Versions: 1 2 3 4 5 6 7 8 9 10 11 12 13 14 15 16 17 18 19 20 21 22 23 24 25 26 27 28 29 30 31 32 33 34 35 36 37 38 39 40 41 42 43 44 45 46 47 48 49 50
000
ASUS43 KTOP 051259
RWRKS

WEATHER ROUNDUP FOR KANSAS
NATIONAL WEATHER SERVICE GOODLAND KS
700 AM CST MON DEC 05 2016

NOTE:  "FAIR" INDICATES FEW OR NO CLOUDS BELOW 12,000 FEET WITH NO
SIGNIFICANT WEATHER AND/OR OBSTRUCTIONS TO VISIBILITY.

KSZ001>006-013>018-027>032-041>047-051400-
NORTHWEST KANSAS

CITY           SKY/WX    TMP DP  RH WIND       PRES   REMARKS
GOODLAND       CLEAR     28  15  58 SW10      29.58F WCI  19
HAYS           CLEAR     37  27  67 S20       29.67F WCI  27
HILL CITY      PTCLDY    38  26  62 SW12      29.65F WCI  30
RUSSELL        CLEAR     36  28  73 S25       29.67F WCI  24
$$

KSZ061>065-074>080-084>089-051400-
SOUTHWEST KANSAS

CITY           SKY/WX    TMP DP  RH WIND       PRES   REMARKS
DODGE CITY     CLOUDY    31  26  82 S12       29.70F WCI  22
ELKHART          N/A     30  18  61 SW12        N/A  WCI  20
GARDEN CITY    CLOUDY    27  22  81 S10       29.65F WCI  17
GREAT BEND     CLEAR     33  29  85 S16       29.73F WCI  23
LIBERAL        CLOUDY    32  25  74 S16       29.69F WCI  21
$$

KSZ066>073-081>083-090>101-051400-
SOUTHEAST KANSAS

CITY           SKY/WX    TMP DP  RH WIND       PRES   REMARKS
CHANUTE        FOG       35  34  96 S8        29.91F VSB 1/4
COFFEYVILLE    FOG       29  29 100 CALM      29.94F VSB 1/4
HUTCHINSON     CLEAR     31  28  89 SE7       29.82F
MEDICINE LODGE   N/A     29  27  92 SE7       29.82S
NEWTON         CLEAR     32  31  96 S10       29.83F WCI  24
PARSONS        PTCLDY    33  33 100 S3        29.93F FOG
WICHITA INTL   PTCLDY    28  25  88 S7        29.84S
WICHITA JABRA  CLEAR     30  29  96 S8        29.84F
WINFIELD       CLEAR     34  33  96 S8        29.87F FOG
$$

KSZ007>012-019>026-033>040-048>060-102>105-051400-
NORTHEAST KANSAS

CITY           SKY/WX    TMP DP  RH WIND       PRES   REMARKS
CONCORDIA      CLOUDY    37  29  72 S17       29.73F WCI  27
EMPORIA        CLEAR     29  28  96 SE7       29.87F FOG
LAWRENCE       CLEAR     31  31 100 E6        29.90F
MANHATTAN      CLEAR     33  30  88 CALM      29.83F
OLATHE IND     CLEAR     31  30  96 S9        29.90F
OLATHE EXE     CLEAR     31  31 100 S5        29.91F
SALINA         CLEAR     33  29  85 S12       29.80F WCI  24
TOPEKA BILLARD CLEAR     34  30  85 CALM      29.88F
TOPEKA FORBES  CLEAR     36  33  89 S8        29.87F
$$




USA.gov is the U.S. government's official web portal to all federal, state and local government web resources and services.